Location: Pradons
(44.4746°N, 4.3578°E)
Time: 22:52:22
(UTC+00:00)

Cosmos 2228 - Pass Details

Date: 09 April 2020
Orbit: 588 x 619 km, 82.5° (Epoch: 05 June)

Event Time Altitude Azimuth Distance (km) Brightness Sun altitude
Rises 19:05:33 0° 184° (S) 2,832 6.3 -8.6°
Reaches altitude 10° 19:07:44 10° 183° (S) 1,939 5.4 -8.9°
Maximum altitude 19:12:01 81° 97° (E) 620 3.0 -9.7°
Drops below altitude 10° 19:16:24 10° 11° (N) 1,975 5.8 -10.4°
Sets 19:18:38 0° 10° (N) 2,889 6.7 -10.8°
